Regional Weather Roundup
Issued by NWS

Home | Current Version | Previous Version | Graphics & Text | Print | Product List | Glossary On
Versions: 1 2 3 4 5 6 7 8 9 10 11 12 13 14 15 16 17 18 19 20 21 22 23 24 25 26 27 28 29 30 31 32 33 34 35 36 37 38 39 40 41 42 43 44 45 46 47 48 49 50
000
ASUS44 KMEG 280410
RWRTN
TENNESSEE HOURLY STATE WEATHER ROUNDUP
NATIONAL WEATHER SERVICE MEMPHIS TN
1100 PM CDT THU APR 27 2017

TNZ002-004-019-021-049-052-054-088>092-280500-
WEST TENNESSEE

CITY           SKY/WX    TMP DP  RH WIND       PRES   REMARKS
MEMPHIS INTL   CLEAR     62  52  69 E8        29.80F
NWS MEMPHIS      N/A     59 N/A N/A MISG        N/A
JACKSON        CLOUDY    55  54  96 CALM      29.85F
DYERSBURG      CLOUDY    57  53  86 E6        29.85F
SOMERVILLE     CLEAR     55  54  94 CALM      29.81F
UNION CITY     CLEAR     57  52  82 E6        29.86S
BOLIVAR        CLEAR     54  52  94 CALM      29.83F
PARIS          CLEAR     52  50  93 CALM      29.88R
HUNTINGDON     CLEAR     55  54  94 CALM      29.86S
LEXINGTON      CLEAR     52  52 100 MISG      29.86F
SAVANNAH       CLEAR     54  54 100 CALM      29.85F
$$

TNZ008-025-027-028-033-062-065-066-280500-
NORTH MIDDLE TENNESSEE

CITY           SKY/WX    TMP DP  RH WIND       PRES   REMARKS
NASHVILLE      PTCLDY    56  52  86 CALM      29.89S
PORTLAND       CLEAR     52  50  93 CALM      29.89S
CLARKSVILLE    CLEAR     52  49  89 CALM      29.89R
SMYRNA         CLEAR     54  52  93 CALM      29.90S
COOKEVILLE     CLEAR     54  52  94 CALM      29.89R
GALLATIN       CLEAR     54  52  94 CALM      29.92S
CROSSVILLE     CLEAR     52  50  93 CALM      29.93R
$$

TNZ061-075-076-078-094-096-097-280500-
SOUTH MIDDLE TENNESSEE

CITY           SKY/WX    TMP DP  RH WIND       PRES   REMARKS
FAYETTEVILLE   CLEAR     59  54  82 CALM      29.89R
TULLAHOMA      CLEAR     54  52  94 CALM      29.90S
WINCHESTER     CLEAR     55  54  94 CALM      29.90S
MCMINNVILLE    CLEAR     55  55 100 CALM      29.90S
COLUMBIA       CLEAR    N/A N/A N/A CALM      29.88R
SHELBYVILLE    CLEAR     55  55 100 E3        29.90S
$$

TNZ017-018-042-046-047-280500-
NORTHEAST TENNESSEE

CITY           SKY/WX    TMP DP  RH WIND       PRES   REMARKS
TRI CITIES     FOG       57  57 100 CALM      29.92R VSB 1/4
ELIZABETHTON     N/A     61  61 100 CALM      29.92S
$$

TNZ012-013-036-069-073-074-280500-
CENTRAL EAST TENNESSEE

CITY           SKY/WX    TMP DP  RH WIND       PRES   REMARKS
KNOXVILLE      CLEAR     64  56  75 SW6       29.89R
OAK RIDGE      CLEAR     60  57  89 CALM      29.90R
DOWNTOWN KNOXV CLEAR     57  57 100 CALM      29.89R
GATLINBURG     CLEAR     59  57  94 CALM      29.89S
MORRISTOWN     CLEAR     61  59  94 CALM      29.90R
JACKSBORO      CLEAR     57  55  94 CALM      29.93R
$$

TNZ083-085-099-280500-
SOUTHEAST TENNESSEE

CITY           SKY/WX    TMP DP  RH WIND       PRES   REMARKS
CHATTANOOGA    CLEAR     62  56  80 SE3       29.89R
$$

SKY/WX REPORTED AS FAIR MEANS FEW OR NO CLOUDS BELOW
12 THOUSAND FEET.




USA.gov is the U.S. government's official web portal to all federal, state and local government web resources and services.